Weather History for Columbia Owens, SC

Change the Weather History Date:

Thursday, February 28, 2013

  Actual Average Record
Temperature  
Mean Temperature 48 °F 52 °F  
Max Temperature 56 °F 64 °F 83 °F (2011)
Min Temperature 40 °F 41 °F 21 °F (2002)
Degree Days  
Heating Degree Days 17 13  
Month to date heating degree days 468 436  
Since 1 July heating degree days 1658 1929  
Cooling Degree Days 0 0  
Month to date cooling degree days 0 2  
Year to date cooling degree days 24 3  
Moisture  
Dew Point 31 °F    
Average Humidity 53    
Maximum Humidity 86    
Minimum Humidity 32    
Precipitation  
Precipitation 0.00 in 0.14 in 1.79 in (2009)
Month to date precipitation 5.21 3.65  
Year to date precipitation 6.63 7.28  
Sea Level Pressure  
Sea Level Pressure 29.85 in    
Wind  
Wind Speed 9 mph (West)    
Max Wind Speed 23 mph    
Max Gust Speed 32 mph    
Visibility 10 miles    
Events      
T = Trace of Precipitation, MM = Missing Value Source: NWS Daily Summary

Daily Weather History Graph

Daily Weather History Graph

Search for Another Location

Airport:

Trip Planner

Search our weather history database for the weather conditions in past years. The results will help you decide how hot, cold, wet, or windy it might be!

Date:

Astronomy

Feb. 28, 2013 Rise Set
Actual Time 6:53 AM EST 6:19 PM EST
Civil Twilight 6:28 AM EST 6:44 PM EST
Nautical Twilight 5:59 AM EST 7:13 PM EST
Astronomical Twilight 5:30 AM EST 7:42 PM EST
Moon 9:32 PM EST (2/28) 8:12 AM EST (2/28)
Length of Visible Light 12h 16m
Length of Day
11h 26m
Waning Gibbous, 91% of the Moon is Illuminated
Feb 28
Waning Gibbous
Mar 4
Last Quarter
Mar 11
New
Mar 19
First Quarter
Mar 27
Full

Hourly Weather History & Observations

Time (EST) Temp. Windchill Dew Point Humidity Pressure Visibility Wind Dir Wind Speed Gust Speed Precip Events Conditions
12:53 AM 48.9 °F - 39.9 °F 71% 29.81 in 10.0 mi WSW 6.9 mph - N/A   Clear
1:53 AM 48.0 °F - 39.0 °F 71% 29.80 in 10.0 mi SW 3.5 mph - N/A   Clear
2:53 AM 46.0 °F 43.9 °F 39.0 °F 76% 29.79 in 10.0 mi WSW 4.6 mph - N/A   Clear
4:53 AM 43.0 °F - 37.0 °F 80% 29.81 in 10.0 mi Calm Calm - N/A   Clear
5:53 AM 41.0 °F 39.0 °F 37.0 °F 86% 29.81 in 10.0 mi West 3.5 mph - N/A   Clear
7:53 AM 43.0 °F 39.5 °F 36.0 °F 76% 29.85 in 10.0 mi WSW 5.8 mph - N/A   Clear
9:53 AM 50.0 °F - 25.0 °F 38% 29.86 in 10.0 mi West 17.3 mph 27.6 mph N/A   Clear
10:53 AM 51.1 °F - 26.1 °F 38% 29.86 in 10.0 mi West 16.1 mph 26.5 mph N/A   Clear
11:53 AM 52.0 °F - 27.0 °F 38% 29.85 in 10.0 mi West 11.5 mph 24.2 mph N/A   Scattered Clouds
12:53 PM 54.0 °F - 27.0 °F 35% 29.84 in 10.0 mi WNW 16.1 mph 26.5 mph N/A   Partly Cloudy
1:53 PM 55.0 °F - 27.0 °F 34% 29.82 in 10.0 mi WNW 15.0 mph 28.8 mph N/A   Scattered Clouds
2:53 PM 54.0 °F - 28.0 °F 37% 29.83 in 10.0 mi WNW 13.8 mph 24.2 mph N/A   Scattered Clouds
4:53 PM 53.1 °F - 28.9 °F 40% 29.84 in 10.0 mi WNW 11.5 mph 18.4 mph N/A   Overcast
5:53 PM 52.0 °F - 28.0 °F 40% 29.87 in 10.0 mi WNW 9.2 mph 20.7 mph N/A   Overcast
6:53 PM 51.1 °F - 28.9 °F 43% 29.88 in 10.0 mi West 8.1 mph - N/A   Mostly Cloudy
7:53 PM 48.9 °F - 28.0 °F 44% 29.89 in 10.0 mi West 10.4 mph - N/A   Clear
8:53 PM 46.9 °F - 28.0 °F 48% 29.91 in 10.0 mi West 6.9 mph - N/A   Clear
9:53 PM 46.0 °F 42.5 °F 28.0 °F 50% 29.92 in 10.0 mi NW 6.9 mph - N/A   Clear
10:53 PM 44.1 °F 40.1 °F 28.0 °F 53% 29.92 in 10.0 mi NW 6.9 mph - N/A   Clear
11:53 PM 42.1 °F 37.1 °F 26.1 °F 53% 29.92 in 10.0 mi NW 8.1 mph - N/A   Clear